Total_Precipitation_Accumulation
0.69 0.98 1.05 0.88 0.90 0.96 0.88 0.89 0.93 0.85 0.72 0.81 0.81 0.76 0.80 0.74 0.59 0.45 0.36 0.34 0.32 0.31 0.33 0.30 0.27 0.25 0.24 0.22 0.22 0.26 0.30 0.33 0.35 0.43 0.54 0.63 0.73 0.91 1.12 1.18 1.25 1.39 1.41 1.43
0.75 0.79 0.64 0.66 0.73 0.82 0.81 0.79 0.83 0.74 0.63 0.66 0.74 0.78 0.75 0.67 0.59 0.46 0.36 0.29 0.22 0.24 0.25 0.22 0.21 0.20 0.18 0.14 0.14 0.19 0.28 0.37 0.43 0.49 0.62 0.77 1.01 1.12 1.26 1.42 1.41 1.44 1.49 1.53
0.64 0.56 0.50 0.58 0.70 0.78 0.79 0.72 0.66 0.69 0.66 0.63 0.68 0.87 0.81 0.72 0.58 0.46 0.37 0.28 0.20 0.22 0.21 0.16 0.15 0.16 0.15 0.11 0.13 0.19 0.33 0.52 0.73 0.84 1.06 1.33 1.59 1.67 1.60 1.59 1.64 1.63 1.66 1.72
0.70 0.51 0.50 0.59 0.63 0.65 0.78 0.55 0.47 0.58 0.69 0.77 0.64 0.87 0.76 0.68 0.62 0.47 0.39 0.33 0.25 0.25 0.26 0.20 0.19 0.18 0.17 0.17 0.25 0.41 0.64 0.94 1.19 1.34 1.53 1.74 1.85 1.89 1.82 1.83 1.81 1.80 1.71 1.65
0.71 0.54 0.53 0.60 0.56 0.51 0.62 0.50 0.48 0.57 0.67 0.67 0.56 0.65 0.61 0.55 0.62 0.54 0.49 0.42 0.37 0.34 0.29 0.29 0.32 0.32 0.37 0.46 0.64 0.92 1.17 1.41 1.56 1.61 1.70 1.90 2.05 2.20 2.22 2.10 1.95 1.83 1.80 1.74
0.61 0.53 0.56 0.60 0.52 0.46 0.51 0.57 0.60 0.61 0.68 0.75 0.52 0.49 0.57 0.49 0.50 0.54 0.55 0.47 0.41 0.38 0.37 0.45 0.57 0.69 0.80 0.89 1.07 1.27 1.41 1.55 1.55 1.55 1.60 1.73 1.92 2.08 2.10 2.11 2.08 1.94 1.81 1.72
0.63 0.59 0.54 0.48 0.55 0.54 0.56 0.69 0.84 0.85 0.83 0.72 0.44 0.49 0.52 0.37 0.36 0.44 0.48 0.47 0.43 0.40 0.47 0.66 0.82 0.95 1.06 1.16 1.26 1.28 1.28 1.33 1.34 1.35 1.39 1.46 1.53 1.55 1.61 1.71 1.64 1.51 1.39 1.35
0.50 0.56 0.47 0.39 0.41 0.48 0.51 0.52 0.73 0.83 0.75 0.65 0.49 0.63 0.57 0.39 0.34 0.33 0.37 0.44 0.51 0.63 0.73 0.85 0.94 1.04 1.09 1.22 1.26 1.21 1.18 1.17 1.11 1.05 1.09 1.11 1.15 1.20 1.22 1.23 1.18 1.10 1.06 1.02
0.36 0.42 0.35 0.32 0.30 0.36 0.43 0.42 0.44 0.60 0.58 0.60 0.54 0.64 0.58 0.38 0.32 0.31 0.33 0.41 0.55 0.76 1.01 1.16 1.15 1.05 0.97 1.03 1.09 1.07 1.02 0.97 0.89 0.83 0.86 0.89 0.95 0.98 0.95 0.92 0.87 0.85 0.79 0.79
0.29 0.39 0.39 0.34 0.33 0.34 0.33 0.36 0.45 0.66 0.76 0.76 0.65 0.70 0.65 0.47 0.38 0.35 0.39 0.49 0.67 0.88 1.08 1.34 1.47 1.34 1.06 0.89 0.91 0.87 0.83 0.85 0.83 0.79 0.81 0.81 0.73 0.67 0.67 0.70 0.64 0.63 0.67 0.71
0.22 0.33 0.37 0.36 0.36 0.36 0.34 0.38 0.48 0.63 0.63 0.83 1.06 1.04 0.77 0.65 0.56 0.53 0.58 0.63 0.69 0.98 1.26 1.39 1.43 1.31 1.12 0.85 0.77 0.76 0.72 0.75 0.81 0.73 0.75 0.75 0.65 0.52 0.49 0.48 0.45 0.45 0.49 0.55
0.18 0.30 0.34 0.30 0.28 0.25 0.31 0.38 0.51 0.78 0.79 0.75 0.92 0.98 0.63 0.65 0.74 0.67 0.72 0.79 0.80 0.88 0.93 0.94 1.04 1.05 0.98 0.84 0.77 0.82 0.86 0.85 0.77 0.70 0.65 0.62 0.54 0.47 0.46 0.43 0.38 0.40 0.45 0.47
0.16 0.26 0.37 0.36 0.35 0.32 0.42 0.47 0.42 0.57 0.73 0.75 0.89 0.94 0.58 0.57 0.68 0.69 0.76 0.81 0.82 0.77 0.68 0.61 0.71 0.84 0.79 0.72 0.76 0.84 0.98 0.98 0.89 0.76 0.65 0.60 0.56 0.53 0.51 0.45 0.42 0.41 0.48 0.59
0.12 0.21 0.27 0.32 0.32 0.37 0.63 0.71 0.50 0.57 0.77 0.64 0.63 0.70 0.54 0.52 0.59 0.64 0.72 0.76 0.72 0.62 0.53 0.47 0.46 0.49 0.48 0.49 0.53 0.66 0.92 1.10 1.07 0.96 0.82 0.72 0.65 0.59 0.52 0.46 0.45 0.42 0.46 0.52
0.14 0.17 0.14 0.14 0.16 0.22 0.43 0.47 0.38 0.38 0.38 0.43 0.40 0.44 0.53 0.59 0.62 0.64 0.65 0.56 0.47 0.40 0.35 0.29 0.27 0.28 0.29 0.32 0.40 0.50 0.78 0.98 0.99 0.98 0.85 0.71 0.60 0.51 0.48 0.51 0.52 0.48 0.43 0.45
0.13 0.15 0.12 0.11 0.11 0.13 0.17 0.13 0.12 0.14 0.19 0.27 0.31 0.41 0.46 0.49 0.50 0.55 0.55 0.41 0.35 0.31 0.29 0.28 0.24 0.21 0.18 0.17 0.21 0.30 0.50 0.67 0.74 0.80 0.76 0.61 0.54 0.49 0.44 0.45 0.51 0.52 0.42 0.40
0.14 0.16 0.17 0.14 0.11 0.13 0.12 0.08 0.13 0.16 0.18 0.22 0.32 0.44 0.50 0.52 0.57 0.87 0.91 0.59 0.40 0.37 0.32 0.33 0.32 0.28 0.24 0.21 0.20 0.21 0.28 0.38 0.45 0.50 0.50 0.42 0.41 0.48 0.47 0.48 0.47 0.42 0.35 0.36
0.12 0.16 0.21 0.17 0.16 0.20 0.12 0.07 0.12 0.16 0.16 0.15 0.18 0.21 0.26 0.38 0.52 0.69 0.78 0.63 0.45 0.42 0.35 0.31 0.28 0.26 0.23 0.19 0.18 0.19 0.20 0.23 0.26 0.25 0.22 0.18 0.26 0.37 0.39 0.35 0.32 0.28 0.29 0.32
0.09 0.16 0.22 0.20 0.29 0.25 0.09 0.06 0.08 0.10 0.09 0.07 0.08 0.08 0.10 0.14 0.15 0.17 0.22 0.26 0.23 0.19 0.16 0.13 0.11 0.11 0.10 0.09 0.09 0.09 0.06 0.07 0.07 0.07 0.07 0.08 0.09 0.11 0.12 0.11 0.12 0.17 0.22 0.27
0.08 0.12 0.19 0.21 0.27 0.22 0.09 0.04 0.04 0.08 0.12 0.05 0.03 0.03 0.04 0.07 0.12 0.11 0.16 0.11 0.05 0.04 0.03 0.05 0.07 0.08 0.07 0.06 0.07 0.06 0.05 0.05 0.05 0.05 0.06 0.06 0.06 0.07 0.06 0.06 0.07 0.10 0.14 0.18
0.11 0.13 0.15 0.17 0.24 0.14 0.06 0.04 0.06 0.11 0.12 0.04 0.03 0.02 0.02 0.03 0.04 0.05 0.11 0.09 0.02 0.03 0.04 0.05 0.07 0.07 0.06 0.05 0.05 0.04 0.04 0.05 0.07 0.07 0.06 0.05 0.05 0.06 0.09 0.11 0.09 0.09 0.09 0.10
0.10 0.14 0.12 0.13 0.17 0.15 0.05 0.05 0.08 0.08 0.04 0.03 0.04 0.03 0.02 0.03 0.03 0.03 0.06 0.07 0.02 0.03 0.05 0.06 0.07 0.06 0.06 0.06 0.05 0.04 0.04 0.06 0.08 0.07 0.07 0.06 0.06 0.06 0.07 0.13 0.13 0.12 0.11 0.09
0.08 0.10 0.12 0.11 0.10 0.08 0.06 0.06 0.06 0.06 0.04 0.03 0.04 0.04 0.03 0.02 0.02 0.02 0.04 0.09 0.04 0.04 0.04 0.06 0.08 0.08 0.08 0.08 0.08 0.07 0.07 0.08 0.09 0.09 0.08 0.08 0.07 0.07 0.06 0.08 0.11 0.12 0.10 0.10
0.07 0.06 0.08 0.08 0.07 0.05 0.06 0.07 0.06 0.04 0.03 0.03 0.04 0.05 0.04 0.04 0.03 0.03 0.04 0.08 0.07 0.06 0.04 0.05 0.05 0.08 0.11 0.12 0.12 0.12 0.13 0.14 0.14 0.12 0.11 0.10 0.10 0.10 0.09 0.09 0.11 0.13 0.14 0.13
0.05 0.05 0.06 0.08 0.07 0.05 0.06 0.08 0.09 0.06 0.04 0.03 0.04 0.05 0.05 0.06 0.06 0.05 0.05 0.05 0.06 0.09 0.08 0.05 0.05 0.05 0.08 0.11 0.12 0.13 0.13 0.16 0.17 0.16 0.16 0.15 0.14 0.14 0.14 0.14 0.13 0.13 0.16 0.18
0.03 0.05 0.06 0.07 0.06 0.06 0.06 0.07 0.09 0.09 0.06 0.04 0.03 0.03 0.05 0.06 0.06 0.06 0.06 0.05 0.05 0.05 0.06 0.06 0.06 0.05 0.05 0.05 0.06 0.07 0.08 0.10 0.13 0.17 0.17 0.14 0.15 0.18 0.19 0.17 0.15 0.14 0.14 0.17